Location: Bern�tre
(50.1974°N, 2.0915°E)
Time: 05:49:41
(UTC+00:00)

Cosmos 807 - Pass Details

Date: 18 September 2020
Orbit: 372 x 1185 km, 82.9° (Epoch: 27 October)

Event Time Altitude Azimuth Distance (km) Brightness Sun altitude
Rises 18:45:02 0° 180° (S) 2,274 7.8 -8.3°
Reaches altitude 10° 18:46:54 10° 177° (S) 1,469 6.9 -8.6°
Maximum altitude 18:50:00 64° 95° (E) 503 4.4 -9.1°
Drops below altitude 10° 18:53:42 10° 14° (NNE) 1,755 7.4 -9.7°
Sets 18:56:05 0° 12° (NNE) 2,777 8.5 -10.0°
